Weather Roundup
Issued by NWS Springfield, MO

Home | Current Version | Previous Version | Text Only | Print | Product List | Glossary On
Versions: 1 2 3 4 5 6 7 8 9 10 11 12 13 14 15 16 17 18 19 20 21 22 23 24 25 26 27 28 29 30 31 32 33 34 35 36 37 38 39 40 41 42 43 44 45 46 47 48 49 50
000
NZUS99 KSGF 012259
HRRSGF

HOURLY WEATHER
NATIONAL WEATHER SERVICE SPRINGFIELD MO
600 PM CDT MON SEP 01 2014

......SGF CWA......

CITY           SKY/WX    TMP DP  RH WIND       PRES   REMARKS
SPRINGFIELD    MOSUNNY   84  69  60 S15       29.89S
JOPLIN         CLOUDY    86  71  60 S14       29.85S HX  91
WEST PLAINS    SUNNY     85  68  56 S13G22    29.94S
ROLLA          CLOUDY    79  68  69 SE3       29.89F
OSAGE BEACH    CLOUDY    81  70  69 SE3       29.88F
BRANSON        PTSUNNY   90  70  51 S8G17     29.92S HX  95

......SURROUNDING SGF CWA......

CITY           SKY/WX    TMP DP  RH WIND       PRES   REMARKS
CHANUTE        CLOUDY    82  71  69 E3        29.84F
PARSONS        PTSUNNY   85  72  65 NE5       29.84F HX  91
COFFEYVILLE    PTSUNNY   86  74  67 NE12      29.79F THUNDER HX  94
EMPORIA        PTSUNNY   77  69  76 NE7       29.87S
HARRISON AR    MOSUNNY   84  71  65 S10G20    29.93R
NEAR YELLVILLE MOSUNNY   88  68  51 SE6       29.91S HX  91

......KANSAS AND MISSOURI......

CITY           SKY/WX    TMP DP  RH WIND       PRES   REMARKS
KANSAS CTY INT CLOUDY    77  69  76 SW5       29.88F
DOWNTOWN KC    CLOUDY    79  68  69 NW5       29.87S
COLUMBIA       LGT RAIN  79  68  69 NE3       29.87F
SEDALIA        TSTM      72  69  90 CALM      29.90R VSB 1/4
ST JOSEPH      MOSUNNY   79  67  66 W6        29.86F
ST LOUIS       MOSUNNY   85  66  53 SW8       29.91S
SPIRIT OF STL  PTSUNNY   82  67  60 CALM      29.88F
KIRKSVILLE     PTSUNNY   78  68  71 W5        29.87F
WICHITA        PTSUNNY   84  70  62 NE18      29.81S
TOPEKA         CLOUDY    80  68  66 CALM      29.88S
OLATHE         CLOUDY    76  67  73 W3        29.88S

......TENNESSEE......

CITY           SKY/WX    TMP DP  RH WIND       PRES   REMARKS
MEMPHIS        MOSUNNY   89  71  55 S13       29.96S HX  95
NASHVILLE      PTSUNNY   89  66  46 SW10G25   29.99S HX  91

......ARKANSAS.......

CITY           SKY/WX    TMP DP  RH WIND       PRES   REMARKS
FAYETTEVILLE   MOSUNNY   85  70  60 S18G28    29.89S
FT SMITH       SUNNY     91  69  48 S15G23    29.86F HX  96
LITTLE ROCK    MOSUNNY   89  72  56 S13G18    29.93S HX  96

......OKLAHOMA.......

CITY           SKY/WX    TMP DP  RH WIND       PRES   REMARKS
TULSA          PTSUNNY   94  71  47 S22G29    29.78R HX 101
PONCA CITY     MOSUNNY   93  71  48 S12G20    29.76F HX 100
MCALESTER      SUNNY     90  71  53 SE13G21   29.85F HX  96
OKLAHOMA CITY  MOSUNNY   97  66  36 S22       29.78S HX 100

......IOWA............

CITY           SKY/WX    TMP DP  RH WIND       PRES   REMARKS
DES MOINES     PTSUNNY   77  62  59 W7        29.86R
QUAD CITIES    SUNNY     80  66  62 SW10G22   29.80R

......ILLINOIS........

CITY           SKY/WX    TMP DP  RH WIND       PRES   REMARKS
QUINCY         MOSUNNY   79  67  66 SW7       29.87S
CHICAGO        MOSUNNY   81  63  54 SW16G25   29.77R



USA.gov is the U.S. government's official web portal to all federal, state and local government web resources and services.